Regional Weather Roundup
Issued by NWS State College, PA

Home | Current Version | Previous Version | Text Only | Print | Product List | Glossary Off
Versions: 1 2 3 4 5 6 7 8 9 10 11 12 13 14 15 16 17 18 19 20 21 22 23 24 25 26 27 28 29 30 31 32 33 34 35 36 37 38 39 40 41 42 43 44 45 46 47 48 49 50

000
ASUS41 KCTP 250303
RWRCTP

REGIONAL WEATHER ROUNDUP
NATIONAL WEATHER SERVICE STATE COLLEGE PA
1000 PM EST SAT JAN 24 2015

Note: "fair" indicates few or no clouds below 12,000 feet with no
significant weather and/or obstructions to visibility.

* = STATION THAT DOES NOT REPORT PRECIPITATION /E.G. RAIN...SNOW...ETC/
    THUNDER OR FOG.

PAZ002>004-007>009-013>016-020>023-029>032-250400-
WESTERN PENNSYLVANIA

CITY           SKY/WX    TMP DP  RH WIND       PRES   REMARKS
ERIE           CLOUDY    32  29  88 W14G22    29.61R FOG
MEADVILLE      CLOUDY    29  27  92 W10       29.60R FOG
FRANKLIN*      CLOUDY    28  25  86 W12       29.62R
NEW CASTLE     CLOUDY    31  29  92 W10       29.67R
BEAVER COUNTY  NOT AVBL
BUTLER*        CLOUDY    30  28  93 SW10      29.66R
PITTSBURGH INT FRZ DRZL  31  29  92 W12       29.67R FOG
PITTSBURGH     CLOUDY    30  25  81 SW16      29.66R
INDIANA*       CLOUDY    28  28 100 W14       29.66R FOG
LATROBE        CLOUDY    28  28 100 W12       29.68R FOG
WASHINGTON CO* CLOUDY    30  27  86 SW12G17   29.71R
$$

PAZ004>006-010>012-017>019-024>028-033>037-041-042-045-046-049>053-250400-
CENTRAL PENNSYLVANIA

CITY           SKY/WX    TMP DP  RH WIND       PRES   REMARKS
BRADFORD       LGT SNOW  25  22  88 W9G21     29.51R FOG
DUBOIS         CLOUDY    26  25  96 W15       29.56R FOG     WCI  14
CLEARFIELD     CLOUDY    28  25  88 W10G20    29.57R
JOHNSTOWN      CLOUDY    25  23  92 W20G30    29.56R FOG     WCI  11
ALTOONA        CLOUDY    30  25  81 W15G25    29.60R
STATE COLLEGE  NOT AVBL
WILLIAMSPORT   CLOUDY    33  23  66 W16G25    29.54R
SELINSGROVE    CLOUDY    34  24  67 W7        29.58R
FT INDIANTOWN  CLOUDY    34  24  67 W16G31    29.56R
CAPITAL CITY   CLOUDY    36  25  64 W9G22     29.59R
HARRISBURG     CLOUDY    34  26  72 W12       29.58R
YORK           CLOUDY    36  26  67 W8        29.59R
$$

PAZ038>040-043-044-047-048-054-055-060>062-067>071-250400-
EASTERN PENNSYLVANIA

CITY           SKY/WX    TMP DP  RH WIND       PRES   REMARKS
SCRANTON       CLOUDY    33  23  66 NW8       29.47S
MOUNT POCONO   CLOUDY    28  21  75 NW20G29   29.39R WCI  15
ALLENTOWN      CLOUDY    36  24  62 W22G29    29.50R
QUAKERTOWN*    NOT AVBL
READING        CLOUDY    35  24  64 W15       29.55R
LANCASTER      CLOUDY    34  25  69 W16       29.56R
COATESVILLE    CLOUDY    34  28  80 NW14G25   29.54R
POTTSTOWN      PTCLDY    34  23  64 W10       29.54R
BLUE BELL      CLEAR     36  28  75 W6        29.51R
DOYLESTOWN     CLOUDY    34  26  72 W12G18    29.49R
WILLOW GROVE   NOT AVBL
NORTH PHILA    CLOUDY    37  24  59 W10       29.54R
PHILADELPHIA   PTCLDY    37  25  61 W17G28    29.55R
$$



USA.gov is the U.S. government's official web portal to all federal, state and local government web resources and services.